Showing default

OAO 1, 2142

Orbit data source: Space-Track

OAO 1, 2142 is a payload satellite owned by GSFC (US) in LEO that was launched on Fri, 08 Apr 1966 UTC via an ATLAS SLV-3 AGENA D launch vehicle from the Air Force Eastern Test Range (AFETR). Payload-class satellites include a variety of spacecraft equipped with specific instruments for various scientific and technological missions. These include communications satellites like Starlink; space stations such as the ISS; scientific satellites like the Hubble; Earth observation satellites from companies like Planet Labs, Umbra, and HawkEye 360; GPS; miniature CubeSats for education and research; and military/defense satellites.

Loading next visibility...
Identifier
2142, 1966-031A
Orbit
LEO
Country
Flag of USUS
Related business
Manufacturer
Grummann
Mission
Spacecraft
Bus & Motor
OAO, Unknown motor
Mass
1,769 kg wet, 1,769 kg dry
Launch date (UTC)
1966-04-08 (60 years ago)
Launch vehicle
ATLAS SLV-3 AGENA D
Launch site
Air Force Eastern Test Range (AFETR)
Object type
Payload
Rocket body
Debris
Shape & HBR
Unknown
Radar Cross Section
Large (>1 m²)

Expand to show TLE details & history
Last TLE update: 5 hours ago

TLE from 5 hours ago
0 OAO 1
1  2142U 66031A   26198.17640769 -.00000000  00000-0  66500-5 0  9994
2  2142  35.0441 166.3049 0006908 176.1098 183.9644 14.34700883155398
Epoch: 2026-07-17T04:14Z
TLE epoch observation values (Epoch: 2026-07-17T04:14:01.624Z)
Latitude
-0.00002°
Longitude
167.79084°
Altitude
779.944 km
Speed
7.463 km/s
True Right ascension
11h 05m 13s
True Declination
0° 00' 00"
Sunlit
Object was in daylight at epoch
Visualization orbit readout
Latitude
Unknown
Longitude
Unknown
Altitude
Unknown
Speed
Unknown
Apparent Right ascension
Unknown
Apparent Declination
Unknown
Sunlit
N/A
Visualization observer readout
Local Sidereal Time
21:34:41
Azimuth
Unknown
Elevation
Unknown
Doppler factor
Unknown
Orbital elements
Apogee altitude
784.122 km
Perigee altitude
774.233 km
Semi-major axis
7,157.314 km
Eccentricity
0.00069
Inclination
35.0441°
RAAN
166.3049°
Arg. of periapsis
176.1098°
True anomaly
183.95893°
Mean anomaly
183.9644°
Eccentric anomaly
183.96167°
Mean motion
3.58441 °/min
Orbital period
100.43 mins
BSTAR
0.00000665
Loading maneuver chart data...
Computing Atmospheric mass density...
Loading historical data...
Loading historical data...
Loading historical data...
Loading historical data...
Loading historical data...
Loading historical data...
Loading historical data...
Other satellites on launch #31 in the year 1966 (1966-04-08 UTC)

Documentation

Showing up to 5 results
|